Theta_e
348 348 348 348 348 347 348 348 349 349 348 349 349 350 350 350 351 351 351 349 347 346 345 345 345 345 345 345 345 345 345 345 346 346 347 351 344 334 333 333 333 334 335 337 338 339 341 342 344 345 346 346 346 346 345 345 344 345 346 343 342 342 339 339 339 339 338 338 338 339 339 340 346 350 351 351 351 352 352 353 353 353 353 353 353
349 348 349 349 348 348 349 348 349 349 349 349 349 350 350 351 351 351 350 347 345 345 345 346 344 344 345 345 345 345 346 346 347 347 346 349 347 339 335 334 334 334 334 335 335 335 336 337 338 339 340 340 341 341 341 341 340 340 340 338 338 338 338 338 337 337 338 338 339 340 341 343 349 351 351 353 353 354 354 354 354 354 354 353 353
351 350 350 351 350 350 350 349 350 350 350 350 350 351 352 352 352 352 351 347 345 345 344 345 344 344 345 345 346 346 347 347 346 347 348 349 350 347 341 334 333 334 333 332 333 334 334 335 335 336 336 336 337 337 336 336 336 335 335 335 336 336 337 338 338 339 340 341 342 343 345 348 351 353 353 354 354 354 354 354 354 353 353 352 352
354 352 351 352 352 351 350 350 351 351 351 352 352 352 351 352 353 353 352 348 346 346 345 344 344 345 345 344 346 346 346 346 344 344 347 349 352 353 350 342 334 333 335 335 335 337 338 338 339 339 339 339 338 338 337 337 336 337 337 337 338 338 339 340 341 343 343 344 345 345 348 352 353 353 354 355 354 354 354 353 353 352 351 350 348
356 354 351 352 352 352 351 351 352 352 352 353 354 353 351 350 351 352 352 349 346 346 346 344 344 346 345 344 345 345 343 344 344 343 347 350 350 352 353 352 345 337 335 338 341 342 343 344 344 345 345 345 345 344 344 343 343 342 342 342 343 343 343 344 345 346 347 347 346 347 351 354 354 355 355 354 354 352 350 350 348 346 344 339 335
357 356 353 351 352 353 352 353 353 353 353 355 354 351 351 351 350 350 350 349 347 346 347 345 344 346 346 345 345 345 344 344 344 343 346 347 347 348 349 353 354 347 340 340 342 346 347 347 348 348 349 349 349 349 349 349 349 348 348 348 347 347 347 348 349 349 348 348 348 350 354 355 354 353 351 348 346 343 340 338 336 332 328 324 322
356 357 354 351 351 353 352 353 354 353 354 355 353 350 351 352 351 351 350 350 349 347 347 347 345 345 346 346 344 345 344 343 344 342 344 345 345 348 348 349 353 353 352 350 346 346 349 349 349 350 350 350 350 350 351 350 351 350 351 351 351 351 350 351 351 350 349 349 350 351 353 353 349 345 342 338 334 331 327 325 324 321 320 320 320
356 357 355 351 350 352 353 354 355 355 355 355 352 351 351 351 353 353 352 351 349 349 349 348 347 345 345 345 344 345 344 343 345 343 343 343 343 345 349 350 349 351 355 357 352 346 347 349 350 350 350 350 350 350 350 350 350 351 351 352 352 353 353 352 350 349 349 351 349 347 346 344 339 335 331 328 325 322 321 320 320 320 321 321 320
355 356 355 351 350 351 352 355 355 356 357 355 351 351 351 352 356 356 355 352 349 350 349 348 348 346 345 344 342 343 343 345 345 343 343 344 344 346 347 347 349 353 354 354 355 350 347 348 348 350 350 350 350 350 350 350 350 350 351 352 352 352 351 349 348 348 349 348 345 340 337 334 331 327 325 322 321 320 320 320 320 320 321 321 321
355 356 355 351 351 351 353 355 355 357 358 354 352 353 353 352 355 356 357 354 350 351 349 348 348 345 343 342 342 342 341 344 344 343 343 344 346 346 345 346 349 353 353 350 352 353 353 352 352 352 348 348 350 350 350 347 343 344 347 348 348 347 347 346 347 348 348 345 341 335 332 331 329 324 322 321 322 322 322 322 323 324 325 326 326
356 356 357 353 352 352 353 354 353 355 355 354 353 355 355 355 355 357 357 355 352 350 347 346 345 343 342 341 342 344 342 343 346 345 342 343 346 345 343 347 349 348 350 350 348 349 353 354 356 356 351 348 348 349 349 341 337 339 341 342 343 343 344 344 345 346 345 344 341 337 335 334 333 330 328 327 327 329 331 333 335 335 336 336 335
356 356 358 356 353 353 353 353 351 353 354 353 353 354 358 358 357 358 356 354 352 347 346 344 341 341 341 342 343 343 344 345 344 344 342 342 346 346 343 346 348 348 348 348 347 345 349 354 355 356 355 353 350 351 351 340 335 339 339 340 342 342 344 344 345 345 345 345 343 341 340 339 339 338 337 336 336 338 340 342 342 342 342 342 342
356 356 357 357 357 355 355 353 352 354 356 355 354 355 359 358 357 357 356 354 351 345 344 344 341 342 342 343 343 342 345 346 344 343 343 343 344 345 345 345 345 346 344 347 349 345 345 351 352 351 354 357 356 356 352 340 336 339 341 344 346 347 349 349 349 349 348 347 346 344 343 342 343 344 344 343 342 342 342 343 343 343 344 344 345
359 359 357 357 358 357 356 355 355 355 357 357 358 357 358 359 358 356 354 351 348 345 347 347 343 341 343 343 343 344 344 345 344 342 343 342 342 343 344 344 344 344 345 348 349 345 343 345 347 351 354 355 356 358 354 344 341 344 346 349 350 351 351 352 352 352 352 352 351 349 347 346 345 346 347 347 346 345 344 344 344 345 346 347 348
359 358 357 358 359 357 356 356 355 355 356 357 359 359 358 359 357 354 354 349 344 345 348 350 345 340 343 344 343 344 344 343 342 342 342 342 341 342 343 342 343 344 345 345 345 344 343 342 344 350 354 354 355 356 353 346 344 346 348 349 351 351 351 352 352 352 353 352 353 353 352 350 349 348 347 348 349 348 348 348 348 348 349 349 350
357 356 356 358 359 358 355 354 352 354 356 357 357 358 356 357 356 355 356 351 344 345 348 350 350 346 345 345 344 343 343 342 341 341 340 342 341 341 342 341 343 346 344 343 345 344 341 342 343 344 349 353 353 353 352 350 349 349 349 348 349 350 351 351 351 351 352 352 352 353 353 353 353 352 351 350 349 349 350 350 350 350 350 350 350
356 356 355 358 360 359 358 356 354 356 358 356 356 356 354 355 356 355 356 354 347 345 347 350 351 350 349 348 347 347 345 341 342 345 341 341 341 340 342 342 342 344 342 340 344 343 341 344 344 341 344 347 347 349 351 354 358 359 358 352 348 349 350 350 351 351 352 352 352 352 352 353 354 354 354 353 352 352 352 351 351 351 351 351 350
356 357 355 358 359 359 360 358 356 358 357 355 356 355 354 354 356 358 358 356 352 346 345 348 349 349 349 349 350 350 350 344 343 347 343 340 340 339 342 343 341 342 342 340 342 343 341 342 342 341 343 343 345 348 348 351 356 359 359 352 348 350 350 350 351 352 352 352 352 353 352 353 353 354 354 354 355 354 354 354 354 353 353 353 352
356 358 357 358 359 358 359 357 355 357 357 355 355 354 354 356 358 360 361 358 356 352 347 345 347 348 348 347 348 349 351 349 346 345 345 344 342 340 341 341 341 343 343 342 341 342 341 341 341 340 341 344 347 349 348 350 353 355 356 351 348 350 349 351 352 352 353 353 353 354 353 354 353 354 354 354 355 355 355 355 354 354 354 354 354
355 358 360 359 359 359 358 358 357 356 356 356 355 355 358 360 361 363 364 361 356 355 353 349 346 348 350 350 349 349 349 349 350 348 347 346 344 342 341 340 341 342 342 343 341 340 340 341 341 340 341 343 346 346 345 347 351 355 358 352 349 350 350 351 352 352 353 353 353 354 353 354 354 354 354 354 354 354 354 354 354 354 353 353 354
356 358 360 360 360 360 358 358 359 356 355 356 356 358 361 361 362 364 365 362 357 354 354 353 351 349 352 353 351 350 348 348 349 348 348 346 344 342 342 342 342 341 341 343 343 342 340 340 341 342 343 342 343 344 343 343 345 351 356 353 349 351 351 351 353 353 353 353 353 353 352 353 354 354 355 354 353 352 352 352 352 352 352 352 353
356 359 360 360 359 359 357 356 358 356 356 357 357 358 359 359 361 361 362 363 360 355 353 354 353 352 353 354 352 351 350 350 349 347 348 348 347 344 343 343 343 341 343 343 342 343 343 342 343 343 342 342 343 344 344 346 346 346 351 352 349 350 352 352 352 352 352 352 353 353 352 352 352 353 354 354 353 352 349 348 349 350 350 351 351
354 356 357 358 359 358 356 355 357 356 356 357 357 356 356 358 360 360 360 362 361 358 355 354 353 352 351 350 350 349 349 351 350 348 348 349 351 349 345 345 344 342 343 342 340 342 344 344 344 343 342 343 343 344 345 348 348 346 349 352 350 350 351 351 351 351 351 351 351 352 351 349 348 350 353 353 353 352 348 344 344 346 348 349 350
354 355 355 356 358 358 357 357 357 357 356 357 357 357 356 358 360 360 361 360 359 359 358 356 354 352 351 348 348 348 348 349 349 348 349 349 350 349 346 345 346 346 345 343 342 343 344 344 344 344 345 345 347 349 347 345 347 350 352 353 352 351 351 351 351 349 347 347 346 347 346 344 344 349 353 354 354 354 349 344 342 343 345 347 349
355 355 354 354 357 357 357 358 357 358 358 358 358 357 357 360 360 360 361 360 360 360 359 357 355 353 353 351 349 348 348 348 346 346 348 349 348 350 350 347 346 347 347 345 343 342 345 345 344 344 346 346 347 349 348 343 347 353 354 352 350 352 355 354 353 351 347 344 343 343 342 341 343 348 352 354 354 354 351 347 344 342 344 345 348
356 355 355 354 355 356 357 357 358 359 359 359 358 357 357 359 361 360 360 361 360 359 358 357 356 354 353 352 351 349 349 348 347 346 347 349 350 352 353 351 347 346 347 348 346 344 345 345 343 347 350 349 345 345 347 347 346 348 351 351 351 355 355 352 353 354 348 344 344 343 341 340 342 348 352 353 354 354 353 351 349 346 345 346 348
357 357 357 356 355 356 356 356 358 359 358 358 358 358 357 358 360 361 360 361 360 359 359 357 354 354 353 351 351 350 349 348 348 348 349 351 351 352 354 355 353 349 346 348 348 346 344 343 344 349 350 349 348 346 346 348 346 345 349 351 351 354 353 350 353 354 348 345 347 346 341 339 342 346 351 353 353 353 352 352 351 351 349 349 349
358 358 357 356 357 357 356 355 358 358 358 358 357 357 358 358 360 360 358 359 360 359 358 357 355 353 351 351 351 349 349 349 349 350 351 353 352 351 352 354 356 356 352 349 349 346 344 344 346 348 347 347 351 351 346 346 348 349 350 350 349 351 355 355 354 350 346 348 351 349 343 339 339 344 348 351 352 352 351 350 351 351 352 352 352
358 357 357 356 356 356 355 354 357 358 358 358 357 358 359 359 360 361 358 358 362 361 359 358 356 354 352 351 351 349 348 350 349 349 350 352 353 351 351 352 355 357 356 355 354 349 346 344 345 347 348 349 349 350 347 347 349 350 349 350 349 351 355 355 350 347 348 351 352 350 344 338 337 340 343 345 347 348 349 349 350 350 351 352 353
356 357 357 357 357 357 355 355 356 357 358 358 356 357 359 359 359 360 359 359 361 361 359 358 357 356 355 353 352 350 349 350 349 348 349 352 352 351 351 352 353 355 356 358 358 353 350 346 344 345 348 348 347 347 347 347 349 350 350 352 352 353 353 351 348 349 352 352 351 351 345 337 336 337 338 340 341 344 347 349 350 349 349 350 350
357 359 359 358 357 356 356 357 357 358 358 359 357 357 358 357 358 359 358 358 359 359 359 358 356 356 357 355 354 353 352 351 350 349 349 350 350 350 349 350 352 353 354 357 358 357 354 349 345 344 344 347 347 345 346 346 348 350 351 353 354 353 352 350 348 350 351 350 350 349 345 338 336 337 338 338 339 342 346 347 347 346 346 346 346
357 358 358 358 357 356 355 356 356 357 357 357 357 358 357 357 358 359 359 360 360 359 359 358 356 358 359 358 357 356 355 354 353 351 349 349 350 349 348 349 351 352 353 355 358 358 356 352 349 346 344 346 347 345 345 346 347 349 350 352 353 352 351 349 347 347 347 348 349 349 346 340 337 337 338 338 339 340 341 341 341 341 341 341 342
356 357 357 357 358 357 355 354 355 356 358 357 358 359 359 359 360 360 362 365 364 360 360 359 359 359 359 360 358 358 357 356 355 353 350 348 349 349 349 349 350 351 352 354 356 358 358 355 353 351 349 350 349 348 349 349 349 350 351 352 352 349 348 347 346 345 346 348 349 348 346 343 339 338 338 338 338 338 338 338 338 339 339 339 340
356 357 356 357 358 358 357 357 357 359 361 361 360 360 360 360 361 359 359 363 362 359 360 361 361 358 359 360 359 358 357 356 355 354 350 349 348 348 348 349 350 352 352 354 355 358 358 357 356 355 353 352 351 351 352 352 352 352 353 353 351 346 345 346 345 345 347 349 349 346 346 346 342 339 339 339 339 337 336 336 336 339 340 340 340
355 356 356 355 357 359 358 360 361 361 363 362 359 359 362 363 363 361 358 360 361 360 360 361 360 359 359 359 358 356 354 354 355 354 352 351 350 350 350 350 351 351 351 352 355 357 358 358 357 355 353 354 354 353 353 352 352 352 353 351 349 345 345 346 344 343 347 348 346 343 345 346 344 343 344 343 342 341 340 338 336 337 338 338 339
355 356 356 355 358 360 359 362 363 362 363 362 359 359 362 363 363 362 360 361 361 362 362 362 361 360 360 360 358 356 354 354 355 356 354 353 352 354 354 354 354 354 354 354 356 358 359 359 359 358 357 357 356 355 354 353 352 351 351 350 350 348 348 348 345 343 345 345 342 343 346 345 344 344 345 345 345 346 347 345 341 338 336 336 336
354 355 355 356 359 360 359 360 362 362 362 361 361 360 359 360 361 361 361 361 360 360 361 361 361 361 361 360 359 357 355 355 355 355 355 357 358 357 355 356 358 358 358 358 358 358 358 360 361 360 359 358 357 356 356 355 353 352 351 352 353 352 351 350 349 346 345 343 341 343 344 343 344 345 346 346 347 347 348 349 348 345 341 338 337
353 353 354 356 358 360 359 359 360 362 363 361 362 361 358 358 359 360 360 360 360 360 360 359 359 358 358 358 358 357 357 356 356 356 356 359 360 357 356 358 359 358 358 359 359 360 361 361 360 359 358 357 356 356 357 356 355 355 357 357 355 353 353 353 353 352 348 345 344 345 345 343 344 345 345 346 347 347 348 349 350 350 347 344 341
352 352 354 354 356 358 360 360 359 360 362 362 362 362 360 358 358 359 359 358 358 359 358 357 357 356 356 357 357 357 357 357 357 357 357 359 358 358 359 361 361 361 361 359 359 359 360 360 358 356 355 355 355 355 355 356 357 358 358 356 352 350 352 353 354 353 351 349 349 349 346 343 343 344 345 346 346 347 348 349 350 350 350 349 347
349 350 352 353 354 355 357 358 357 358 360 361 362 363 362 359 358 358 357 357 357 357 357 356 355 354 354 354 355 356 356 357 358 357 357 358 359 360 361 360 360 361 361 359 359 360 360 358 357 355 355 355 356 355 354 354 354 354 352 349 347 348 350 351 351 350 350 351 351 350 347 346 347 347 347 349 350 351 350 350 349 349 349 351 351
346 348 348 350 351 352 354 356 355 355 356 357 359 360 360 361 360 357 356 355 355 356 356 356 355 354 353 353 352 352 354 356 358 358 356 355 356 356 357 358 359 359 359 359 360 360 359 358 356 355 355 354 352 351 350 350 348 348 346 345 345 347 348 349 351 351 352 352 351 350 351 353 353 352 353 356 356 354 352 349 348 349 350 352 352
345 346 348 347 348 350 352 354 354 354 354 354 354 356 358 359 359 356 354 354 354 355 357 357 355 354 353 352 351 351 352 354 355 355 351 349 349 350 352 356 357 358 359 360 359 358 357 356 355 353 351 349 346 345 346 345 343 343 344 345 347 350 351 354 355 355 355 355 354 354 355 356 356 356 358 359 358 356 354 351 349 350 351 351 352
349 350 349 349 348 349 351 352 353 353 353 352 352 354 356 357 357 355 353 353 354 355 355 354 355 353 351 350 350 350 352 352 354 354 351 349 349 349 349 350 351 353 355 356 357 358 356 355 354 351 349 347 346 347 346 343 342 345 349 352 354 356 356 358 359 358 357 357 357 357 358 358 358 359 360 360 360 358 355 353 351 352 353 352 353
354 353 352 352 352 350 349 350 350 351 352 351 351 353 355 356 355 353 352 352 353 352 351 351 352 352 351 350 349 348 350 351 352 354 354 352 353 352 351 350 349 349 350 351 353 355 355 356 354 352 351 351 351 351 349 347 350 354 357 359 359 360 360 359 359 359 358 357 358 360 360 360 360 361 361 360 360 358 356 355 355 355 356 356 356
357 356 354 354 354 352 350 347 348 352 352 352 353 353 354 354 353 351 351 351 351 350 349 349 351 351 351 352 352 350 349 350 351 353 354 354 357 358 358 356 354 352 350 350 350 350 352 355 356 355 355 354 354 355 354 355 358 359 360 361 360 359 360 360 360 360 359 359 359 361 362 362 362 362 360 360 359 358 358 358 357 357 358 358 358
360 358 357 354 354 354 352 348 352 355 355 354 353 353 352 352 350 348 349 350 349 347 347 348 349 350 352 353 354 353 352 354 356 356 357 359 362 364 363 361 360 358 356 354 353 353 353 354 355 356 356 355 356 356 356 357 359 360 360 361 360 359 359 359 358 359 360 360 359 360 362 363 361 359 359 359 359 358 358 358 358 358 359 360 359
360 360 358 355 355 355 353 351 353 353 353 353 353 351 349 349 348 347 348 350 349 345 345 347 350 353 356 356 355 355 356 358 360 360 360 361 361 361 361 361 360 358 356 354 355 355 356 356 355 356 356 355 355 355 354 354 355 356 357 357 358 357 357 357 357 356 357 357 356 357 360 360 358 357 357 357 357 357 357 358 358 358 358 358 359
360 361 359 358 357 356 356 356 352 348 349 351 351 350 349 349 348 348 350 353 353 349 348 352 353 354 355 356 356 357 357 358 359 360 360 358 356 357 359 361 359 356 354 353 352 353 353 354 354 355 354 354 354 354 353 353 355 356 356 355 356 356 354 355 356 354 354 355 354 355 357 357 356 356 356 355 356 356 356 357 356 356 357 358 359
356 358 356 354 353 352 353 354 350 345 346 349 349 349 349 349 349 351 355 358 358 356 356 355 353 352 353 355 356 356 356 357 357 357 357 354 353 356 359 360 359 359 357 355 354 354 355 354 354 355 355 356 357 356 355 355 356 358 357 355 356 356 354 355 355 354 354 355 356 356 356 357 357 356 357 357 357 356 356 356 355 355 356 357 357
353 353 350 348 348 347 347 347 344 340 341 344 345 347 348 348 348 351 354 356 356 357 358 356 353 351 353 355 355 354 353 353 353 353 353 352 352 355 357 357 357 358 357 356 356 357 357 357 357 356 356 356 357 356 356 356 357 357 356 354 354 354 354 355 355 354 354 356 357 356 357 358 358 357 356 357 358 357 357 357 355 355 356 357 357
350 348 345 343 343 343 342 341 338 336 335 337 339 342 344 346 348 350 353 355 355 356 357 353 349 350 352 351 349 349 350 350 350 351 350 350 350 351 353 355 355 356 355 354 354 355 355 356 356 356 355 355 356 356 356 356 354 353 353 353 353 352 353 354 354 353 354 355 356 356 356 356 357 357 355 354 356 357 358 358 357 356 356 356 356
Wind_Speed
13 12 12 13 10 14 16 10 9 10 11 10 8 8 8 8 8 7 6 5 5 6 6 7 7 7 7 7 7 6 6 6 6 5 6 7 5 5 5 6 5 5 4 4 3 2 2 2 1 1 1 1 1 1 1 1 1 1 2 3 2 2 3 3 4 4 5 5 6 6 7 8 9 9 9 9 8 8 8 8 9 10 10 10 11
13 13 12 12 10 15 19 14 11 14 14 10 8 8 8 8 7 7 6 5 5 4 5 6 7 7 6 7 6 6 6 6 6 6 6 7 6 4 5 5 5 5 5 4 4 3 3 3 3 3 2 2 2 1 1 2 2 2 2 2 2 2 3 3 4 5 5 6 6 7 8 9 9 9 9 8 8 8 9 9 10 10 11 11 11
12 13 13 12 10 10 13 11 9 11 11 9 7 6 6 5 5 6 5 5 5 3 3 5 6 6 6 6 6 5 5 6 7 6 6 6 6 4 4 5 6 5 6 6 6 6 5 5 5 5 4 4 4 3 3 3 3 3 3 3 3 3 4 4 4 5 5 6 7 8 8 9 8 8 8 8 8 9 10 10 10 10 10 10 11
8 9 9 8 8 8 8 8 7 8 7 6 5 5 5 5 5 5 4 4 4 3 2 4 4 4 6 6 5 5 4 5 5 5 5 6 6 6 3 4 6 6 6 6 6 7 7 7 7 6 6 6 5 5 4 4 4 4 4 4 4 4 4 4 5 5 6 6 7 8 8 8 7 7 8 9 10 10 10 10 9 9 9 9 10
6 6 7 7 7 7 7 7 7 6 6 5 4 4 4 4 4 4 3 2 3 3 2 3 4 2 4 6 5 5 5 4 5 5 5 6 6 6 6 3 3 6 7 6 6 7 7 7 7 7 7 6 6 5 5 5 5 4 4 4 4 4 4 4 5 5 6 6 7 8 8 8 8 8 9 10 9 9 9 8 8 7 8 9 9
5 4 5 6 6 6 6 7 6 6 6 4 3 4 4 3 3 3 2 2 2 2 1 3 4 2 3 5 4 4 5 4 5 5 4 6 6 5 6 6 4 4 6 6 6 7 7 7 7 7 7 6 6 5 5 4 4 4 4 4 3 4 4 5 5 6 6 6 8 9 8 8 8 8 8 8 8 8 8 7 7 8 8 9 10
5 4 4 5 6 6 6 6 5 5 4 2 3 4 4 3 3 3 2 1 1 2 2 2 3 3 3 4 4 3 4 4 4 5 5 5 5 5 5 5 6 5 5 4 5 6 7 7 7 6 6 5 5 5 5 4 4 3 3 3 3 4 4 5 6 6 7 7 8 9 8 8 9 8 8 7 7 7 7 7 7 8 9 9 10
6 4 3 4 6 6 6 6 4 5 4 3 4 4 4 4 4 5 5 4 1 1 2 2 2 4 4 4 4 3 4 4 4 5 6 6 6 5 5 4 4 5 6 5 4 4 6 6 5 5 5 5 5 5 5 5 4 4 4 4 4 4 5 5 6 6 7 8 8 9 9 9 9 8 8 7 7 6 6 6 7 8 9 10 11
6 5 3 4 5 6 7 6 5 5 3 3 5 4 4 4 3 4 3 2 1 2 2 3 3 4 5 5 5 3 4 3 4 6 6 5 6 6 5 5 5 5 5 5 5 3 4 5 5 5 5 5 5 6 5 6 6 5 4 4 4 5 5 6 6 6 6 7 8 8 8 8 8 8 7 7 6 6 6 6 7 8 9 10 11
6 5 4 4 5 7 7 6 5 4 3 4 5 3 3 4 4 2 2 2 3 3 1 2 3 5 6 5 4 4 5 4 4 6 6 5 5 6 4 4 4 4 3 4 5 3 2 1 2 4 7 7 6 7 7 8 6 5 5 5 6 6 5 5 5 6 6 7 8 8 8 7 8 7 7 6 6 6 6 7 8 8 9 11 13
6 5 3 4 5 6 6 6 5 4 4 4 3 2 2 3 4 2 2 2 2 1 1 1 2 4 7 7 5 4 5 6 5 4 7 7 6 7 5 3 4 4 3 3 4 3 2 1 2 2 5 8 8 8 9 9 7 6 7 6 7 7 7 7 7 7 8 9 9 9 8 8 8 7 7 7 7 7 8 9 9 9 10 12 14
6 5 3 3 5 6 6 5 5 4 3 4 3 2 1 2 2 1 1 1 1 2 2 2 5 5 6 7 5 5 5 5 6 5 7 7 5 6 6 4 3 3 3 2 4 5 3 2 1 2 1 4 7 10 10 9 7 7 7 8 9 10 10 10 10 10 11 12 12 11 10 9 8 8 8 7 7 8 9 9 9 10 11 13 15
6 5 4 3 4 7 6 4 4 4 3 3 2 2 1 0 1 1 1 1 1 3 3 4 6 5 5 7 6 7 6 6 7 7 7 8 6 5 5 5 4 5 6 5 4 4 3 4 4 3 2 3 4 7 9 9 7 8 9 10 11 11 11 11 11 11 12 12 12 11 11 10 9 9 9 9 9 8 9 9 10 10 12 14 15
5 5 5 4 4 7 7 5 4 4 1 1 1 1 0 1 1 1 1 1 2 4 3 1 3 6 5 6 7 7 7 7 8 8 7 8 7 6 5 6 7 8 6 4 3 6 8 7 6 5 5 4 3 4 7 7 6 8 9 10 10 10 10 10 10 10 11 11 11 11 11 10 9 9 9 10 10 10 9 9 9 10 12 14 15
6 6 5 5 5 7 8 6 5 5 2 1 1 1 0 1 1 3 3 1 4 6 3 4 2 6 4 3 5 5 4 4 5 6 6 7 7 7 6 8 9 7 7 7 6 8 9 6 7 8 7 6 5 4 5 5 5 7 7 7 8 8 8 8 8 8 9 9 9 9 9 9 9 8 8 8 9 9 9 9 10 10 12 13 15
7 7 6 6 6 6 8 7 5 6 3 2 2 2 1 1 3 4 4 3 5 8 5 6 6 4 2 2 3 5 4 4 6 5 6 6 7 7 8 10 9 5 8 9 6 8 9 7 7 8 7 8 9 7 5 4 4 4 5 5 5 5 6 6 7 8 8 8 8 8 8 8 8 8 8 8 7 8 8 9 10 11 12 13 15
7 6 6 6 5 5 6 6 6 6 4 3 2 1 1 2 3 2 3 4 4 8 7 7 7 5 4 2 1 3 2 4 5 1 2 7 8 6 5 9 10 5 8 9 6 8 8 8 9 7 7 9 9 10 8 5 4 4 5 5 4 4 5 6 6 7 8 8 9 9 9 9 9 8 8 8 8 8 8 9 10 11 12 13 15
7 6 6 6 5 5 6 6 6 5 4 2 1 1 1 2 3 3 5 6 4 4 6 7 6 5 6 4 3 3 2 2 3 2 3 4 6 6 4 6 9 7 7 9 7 7 6 6 8 7 9 9 6 5 6 6 5 5 5 5 4 4 4 5 6 7 8 8 9 10 10 10 10 10 10 9 9 9 9 10 10 11 12 13 15
7 5 5 6 5 5 5 5 6 5 4 3 3 2 1 2 3 4 5 5 5 5 4 5 5 5 5 5 5 5 4 3 2 2 2 2 1 6 6 5 7 7 9 10 9 6 3 5 8 8 8 7 5 3 4 6 6 8 9 7 6 5 5 5 6 7 8 9 9 10 11 11 11 12 11 11 11 11 11 11 11 12 13 14 15
8 6 5 6 5 5 5 4 4 5 5 4 2 3 2 1 2 3 4 5 5 5 6 6 5 5 6 6 5 5 4 4 3 1 1 0 1 3 5 5 5 5 6 8 8 7 3 4 6 7 5 3 5 4 4 5 4 8 11 11 9 7 6 6 6 7 9 9 10 10 11 11 12 13 13 12 12 12 12 12 11 12 13 15 16
8 7 6 6 6 5 5 4 4 4 4 4 3 3 3 1 1 2 3 4 4 4 5 7 6 5 5 5 5 4 4 3 2 1 1 1 1 2 4 5 5 5 3 3 5 7 5 3 3 5 4 2 4 4 4 4 5 8 9 12 12 9 8 8 8 9 10 11 11 12 12 12 13 13 13 13 13 13 12 12 12 12 13 14 16
9 8 7 6 6 5 6 5 4 4 3 3 4 4 3 3 1 2 2 3 3 3 3 4 4 3 3 2 2 3 3 2 1 2 3 3 3 3 1 2 4 3 2 3 2 2 3 2 3 4 2 4 5 3 4 4 6 7 8 13 14 12 11 10 10 10 11 12 12 13 13 14 14 13 13 13 13 13 12 12 12 12 13 14 15
9 9 8 8 7 6 6 5 4 4 3 3 4 4 4 4 3 2 2 2 2 2 2 2 2 3 1 1 1 2 2 3 3 3 3 3 5 5 5 4 2 4 2 1 1 3 2 3 5 5 3 4 4 5 5 5 8 8 11 15 15 13 12 11 11 11 11 13 14 14 15 15 14 13 12 12 12 12 12 11 11 11 12 13 15
8 8 8 8 7 6 5 4 4 4 3 3 3 2 3 3 3 2 1 1 0 1 2 1 1 3 2 1 1 1 1 1 2 2 2 2 2 1 3 5 3 2 3 1 3 4 1 2 3 4 4 4 6 8 7 7 11 10 10 13 15 15 12 11 12 12 12 14 15 16 17 15 14 12 12 12 12 13 12 12 11 11 12 13 14
8 7 8 8 8 7 6 5 4 4 3 3 2 2 1 2 3 2 1 1 0 0 1 2 1 2 3 3 3 2 1 1 1 1 0 1 2 2 3 4 4 2 3 3 4 5 1 1 3 1 1 3 4 6 8 10 12 10 10 12 16 15 12 12 15 14 15 17 16 17 18 16 13 12 11 12 13 13 13 13 13 13 13 13 14
8 7 7 8 8 7 7 6 5 4 3 3 3 2 2 2 2 2 2 1 1 2 2 3 2 2 2 3 3 4 3 2 2 2 3 1 1 3 3 3 6 3 0 0 4 6 3 3 3 1 1 5 7 7 10 11 11 12 14 17 17 13 12 15 17 16 18 19 18 18 19 17 14 12 12 12 13 14 14 15 15 15 15 15 15
7 7 7 7 7 7 7 6 6 5 4 4 3 4 4 3 2 2 3 2 2 2 3 3 3 2 2 2 3 4 3 3 3 3 3 3 3 4 3 2 5 4 2 1 3 5 5 6 3 2 3 7 7 9 12 13 13 14 14 16 16 15 15 15 14 16 20 20 18 20 20 18 16 13 13 13 14 15 15 16 16 16 16 16 16
7 7 7 8 8 7 7 7 7 6 5 5 5 4 4 4 3 3 4 3 2 3 3 4 4 4 3 2 3 4 4 4 4 4 3 3 3 3 2 2 2 3 4 3 4 4 6 7 4 5 6 8 7 11 14 13 13 11 11 13 15 16 15 13 14 18 20 18 17 20 21 19 17 15 14 14 15 16 16 17 17 17 17 16 16
7 8 8 8 8 8 8 8 7 7 6 6 6 5 5 5 5 4 5 4 3 3 4 4 4 5 4 3 3 4 4 3 4 4 3 3 4 3 3 2 2 2 3 3 4 6 8 9 6 5 3 6 9 13 13 11 10 9 11 13 13 14 13 15 18 19 16 14 16 18 20 20 18 16 16 16 16 17 17 17 17 17 16 16 16
7 7 8 8 8 8 8 8 8 8 7 7 6 6 6 6 6 5 6 5 4 4 5 5 5 5 5 4 4 4 4 4 4 5 3 3 4 5 4 3 2 3 4 3 4 7 8 10 10 7 6 8 12 13 12 11 11 10 11 11 12 13 15 19 19 15 13 13 14 16 19 21 19 17 16 16 16 17 16 16 17 17 16 15 15
7 6 7 8 8 9 9 9 8 8 8 8 7 7 7 7 6 6 7 6 6 6 6 6 6 5 4 4 5 5 5 5 5 5 5 5 5 6 6 5 4 4 5 5 4 6 8 10 11 12 12 12 12 12 13 13 12 12 12 11 12 14 17 20 19 14 12 13 13 14 19 21 19 17 16 16 16 16 16 16 16 17 17 17 16
9 8 7 8 8 9 9 9 9 9 9 8 8 8 8 8 7 7 6 6 7 7 6 7 6 4 4 5 5 5 5 6 6 6 6 6 6 7 6 6 6 6 6 6 6 7 9 11 12 12 13 13 13 12 13 13 13 13 12 12 13 15 16 17 16 15 15 13 11 13 19 21 19 16 15 15 15 15 16 17 17 17 17 17 17
9 9 9 8 8 9 9 9 9 8 8 8 8 8 8 8 8 7 5 5 7 7 6 7 7 5 5 6 7 7 7 7 7 7 8 7 7 7 7 7 7 7 6 6 7 9 10 10 10 11 11 12 12 11 12 13 13 12 12 12 13 15 15 14 15 16 16 13 10 13 18 19 18 17 15 14 14 15 16 16 16 16 16 16 16
9 10 10 10 9 9 9 8 8 7 7 8 8 8 8 8 8 8 7 7 7 7 7 7 7 7 7 7 8 8 8 8 8 8 8 8 8 8 7 7 7 6 6 6 7 9 10 10 10 11 11 11 11 11 11 12 12 11 12 12 13 14 14 14 15 17 15 10 10 17 18 16 16 18 16 15 15 15 16 16 16 15 14 14 15
11 10 10 10 10 9 9 8 8 7 7 8 8 8 7 7 8 8 8 7 8 8 8 8 8 8 8 8 9 9 9 8 8 8 8 8 8 7 7 7 7 7 7 7 8 9 10 11 10 12 11 11 12 12 11 11 12 12 12 12 13 14 14 13 14 15 12 11 16 20 17 13 17 19 17 17 19 18 17 16 15 14 13 14 14
12 11 10 10 10 10 9 9 9 8 8 8 9 9 8 8 8 8 8 7 8 8 8 8 8 8 8 8 9 9 9 8 8 9 9 8 7 7 7 7 7 8 8 8 9 9 10 11 11 12 12 12 12 12 11 11 12 11 12 13 13 14 14 14 14 14 13 16 20 19 14 15 20 19 17 19 22 21 19 18 17 15 14 14 14
12 12 12 10 10 11 10 10 10 10 9 9 9 9 10 9 9 9 9 9 9 9 9 9 9 9 9 9 9 8 9 8 9 9 8 7 7 7 8 7 7 7 8 8 9 10 11 12 12 12 12 13 13 11 11 12 12 12 12 12 12 13 14 13 14 15 15 18 20 17 16 20 21 18 17 21 23 22 21 20 19 17 15 14 13
12 12 12 11 11 11 11 11 11 11 10 10 10 10 11 11 10 10 10 10 10 10 10 10 10 10 10 10 10 9 9 9 9 8 7 7 7 8 8 8 8 8 9 9 10 10 11 12 13 13 13 12 12 11 11 11 13 13 12 12 12 12 13 13 15 15 15 17 18 18 20 21 19 18 20 23 24 22 22 22 21 19 17 14 13
12 11 12 12 12 11 11 11 11 11 11 11 11 12 12 11 10 10 10 11 10 10 10 10 10 11 11 11 11 11 10 10 9 9 8 7 8 8 8 8 8 9 9 10 10 11 11 12 13 13 12 11 12 12 11 11 12 12 12 13 13 12 13 14 15 16 16 18 19 20 19 19 19 21 23 24 23 23 23 22 22 21 18 15 14
13 13 12 12 12 12 12 12 11 11 12 11 12 13 12 11 10 10 10 11 11 10 10 10 10 11 11 11 11 11 11 10 10 9 8 7 7 7 8 8 8 9 10 10 11 11 11 12 12 13 12 11 12 12 12 11 11 12 13 14 14 14 14 15 15 16 18 19 19 19 18 19 21 23 24 24 23 23 23 23 24 23 19 16 15
13 13 13 12 12 12 12 12 12 12 12 12 12 12 12 10 9 10 10 11 13 11 10 10 11 11 11 11 11 11 11 11 11 11 9 8 8 8 8 8 8 9 10 11 11 11 11 12 13 13 13 12 12 13 12 11 12 14 14 14 14 15 16 17 17 17 18 19 19 19 19 19 22 25 25 24 23 22 22 22 22 20 17 16 15
13 12 12 13 13 12 12 12 13 13 11 9 11 13 13 11 9 9 9 11 14 13 11 10 11 12 12 12 11 11 10 10 12 13 13 12 12 12 11 11 10 10 10 11 12 12 12 13 13 13 13 13 13 14 14 14 15 16 14 13 15 16 17 18 18 18 17 17 20 21 21 21 24 26 25 23 22 21 20 20 19 18 16 15 16
14 13 12 13 13 13 12 12 13 12 10 8 10 13 14 13 11 9 9 11 13 14 12 11 12 12 12 12 12 11 11 11 12 13 14 13 13 14 14 14 14 14 13 13 12 12 13 13 14 14 14 15 15 15 16 17 16 15 15 15 15 16 16 16 17 18 18 18 20 23 24 24 24 24 23 22 21 20 19 19 20 21 20 19 19
14 14 14 13 13 13 13 13 12 9 9 10 11 13 15 15 13 11 11 12 13 14 14 13 13 13 13 12 12 11 10 11 12 13 13 13 13 14 14 15 16 16 16 16 16 15 14 13 14 15 15 16 16 15 16 17 16 16 16 16 15 16 16 16 17 19 21 22 23 24 25 24 22 21 21 21 20 21 20 20 21 21 21 20 19
13 13 14 13 13 13 13 13 9 6 8 10 11 12 14 14 14 14 14 14 14 14 14 13 12 13 13 12 12 12 10 9 9 11 13 13 13 14 14 13 15 16 17 17 18 17 16 15 15 16 15 16 16 16 17 17 17 18 18 17 17 17 18 19 20 23 25 25 25 24 23 22 20 20 21 21 21 21 20 20 21 21 21 19 19
12 12 13 13 13 13 13 12 7 6 8 10 9 10 11 11 14 15 14 14 15 15 15 14 14 14 13 12 12 12 10 7 6 8 10 9 9 10 12 13 14 15 15 16 17 18 19 18 18 17 17 17 18 18 18 17 17 19 19 20 21 21 23 23 24 26 27 25 24 22 22 21 19 19 21 21 21 22 21 20 21 22 22 21 20
11 12 13 14 13 12 13 12 7 4 6 8 7 9 10 10 13 13 12 13 14 15 15 14 12 11 11 11 11 9 7 6 6 6 7 7 8 9 11 13 15 16 16 17 17 18 19 19 19 18 17 18 18 18 18 19 19 20 22 23 23 24 25 24 24 26 26 23 21 18 17 19 20 21 22 22 22 22 22 22 22 22 22 21 20
12 12 11 12 11 10 10 11 10 5 3 6 6 7 8 8 9 9 9 11 12 14 13 10 7 7 8 8 7 6 6 6 6 7 8 10 11 11 12 13 15 15 16 15 15 16 17 17 18 18 18 18 19 20 21 21 20 21 22 21 19 21 22 20 20 22 22 21 20 17 17 21 21 21 22 22 22 23 23 22 22 22 20 18 17
13 13 10 6 6 6 4 9 11 6 3 3 3 5 6 7 7 6 7 8 9 10 9 7 6 6 6 4 3 5 6 7 7 7 9 10 10 10 11 13 14 14 14 14 14 15 15 15 15 16 16 17 18 21 22 21 19 19 19 18 16 16 18 17 15 18 20 20 20 18 18 20 20 20 22 22 22 23 23 22 22 20 19 19 19
9 10 9 5 9 10 11 13 11 8 6 2 1 3 5 6 7 7 7 8 8 7 6 6 5 3 3 3 3 4 7 8 9 9 10 11 10 10 11 13 14 13 13 13 13 14 14 14 14 15 16 17 19 20 20 19 17 17 18 20 18 17 17 16 16 19 21 20 18 17 16 18 19 20 21 22 23 22 20 20 22 22 21 21 21
7 7 9 12 15 15 15 14 13 11 10 7 5 3 1 3 5 4 4 6 6 4 3 4 4 3 3 5 7 8 8 10 11 12 13 13 11 10 10 12 13 12 12 12 13 14 16 16 16 18 19 19 19 18 17 16 17 16 15 16 16 15 16 17 17 17 17 15 15 18 19 19 20 21 20 18 17 17 18 20 23 25 24 23 22
Wind_Direction
110 107 123 130 141 172 168 153 154 159 148 138 138 140 139 142 157 157 149 153 144 137 138 132 125 122 123 123 121 117 113 111 117 123 127 131 112 83 97 112 114 119 126 130 140 154 164 172 170 163 202 240 237 261 306 351 355 340 323 320 342 354 358 8 12 13 5 355 350 343 336 328 321 317 316 315 312 312 312 310 306 304 303 299 295
128 127 134 143 157 175 169 159 160 166 157 143 145 154 155 155 152 139 133 130 126 135 140 136 126 122 126 126 124 124 124 124 126 134 133 137 137 88 75 96 101 101 105 107 107 108 112 111 101 100 106 103 90 79 66 52 45 36 23 24 32 27 22 20 19 15 3 353 346 340 334 325 320 319 319 317 318 322 320 316 313 310 309 307 304
133 139 145 155 157 153 153 152 149 150 146 140 145 148 147 142 123 112 115 115 115 126 134 131 127 126 127 125 126 126 133 142 140 138 133 136 150 138 71 74 90 96 98 101 102 102 99 95 93 90 85 82 80 74 70 68 68 62 58 55 52 47 36 26 22 14 1 351 345 338 331 323 323 330 331 328 328 327 323 319 319 318 318 317 314
121 129 134 137 136 130 129 129 123 120 119 119 123 122 117 110 99 95 104 115 116 123 148 131 118 132 133 123 130 129 132 155 141 126 131 137 151 164 149 69 78 91 97 99 98 98 97 93 88 84 79 75 72 71 71 73 74 71 68 64 57 50 41 30 21 12 360 351 345 338 331 331 341 351 345 334 329 325 324 324 324 324 320 313 308
103 109 119 118 117 117 114 111 106 100 101 100 100 105 104 100 93 87 92 119 127 136 168 125 107 122 129 122 128 135 143 154 134 129 145 144 145 159 164 148 90 83 90 96 99 97 94 92 86 80 76 71 68 68 68 70 72 73 68 62 57 46 38 28 16 9 1 350 345 341 341 351 356 352 338 327 326 327 328 330 326 323 317 312 311
96 92 105 112 107 104 102 99 94 92 95 94 94 96 88 90 86 84 97 119 127 136 147 115 112 103 104 115 123 144 150 141 131 136 142 139 143 151 155 166 170 127 100 87 90 99 94 89 86 81 77 70 66 63 61 62 58 57 54 44 41 34 23 20 12 5 0 354 350 349 351 358 354 342 334 332 335 337 338 339 337 334 331 330 330
100 91 100 115 108 101 96 92 91 89 93 88 89 93 82 74 52 49 63 61 98 113 92 100 116 113 102 102 112 134 126 119 136 140 137 139 147 152 152 158 171 182 166 112 88 98 99 93 88 82 76 65 59 52 46 41 33 26 21 15 7 6 7 7 6 2 0 359 357 357 357 355 353 352 352 354 352 348 349 352 350 347 345 343 342
109 100 99 118 109 105 101 97 100 95 95 80 76 87 83 70 34 27 25 21 33 120 111 130 143 133 141 128 119 128 118 131 152 134 130 139 142 144 146 148 153 171 175 158 128 100 91 97 94 82 70 54 46 41 37 25 13 7 359 0 358 0 8 7 5 5 3 3 3 5 5 1 3 7 6 5 2 0 2 1 358 355 352 352 352
118 113 110 123 118 117 112 104 101 92 81 62 74 86 93 93 53 24 22 41 330 272 134 150 169 142 141 129 127 136 119 124 126 119 125 140 145 140 142 157 157 161 164 159 160 140 92 92 90 81 61 44 42 37 29 13 3 5 8 18 25 22 20 16 13 12 10 11 14 17 15 15 16 15 15 17 17 17 13 10 8 5 1 360 3
125 124 116 119 116 114 113 109 105 105 97 79 78 64 77 102 94 61 24 34 336 297 118 150 177 144 131 119 121 123 115 124 126 135 144 136 134 128 132 173 168 160 163 149 150 161 163 55 50 89 60 38 41 34 22 16 13 27 43 47 47 44 38 35 35 33 32 33 33 34 33 31 29 28 30 31 33 30 26 26 24 18 11 9 12
137 142 131 123 117 110 114 118 118 128 134 115 101 64 63 86 95 83 3 8 359 335 136 152 112 107 111 111 118 115 119 146 152 149 137 124 144 148 135 165 166 147 154 163 135 115 129 318 292 150 67 37 42 36 22 22 33 53 60 65 67 69 70 68 66 60 56 54 51 51 50 47 43 42 43 43 43 41 40 39 34 27 20 18 19
144 149 144 131 124 118 119 120 115 103 100 115 126 125 99 74 85 59 312 265 225 175 162 111 97 89 102 111 120 129 138 157 152 149 139 133 161 162 131 127 155 135 91 80 84 66 55 29 59 137 66 15 33 33 25 27 47 68 75 87 90 88 87 81 77 71 65 61 60 60 58 57 56 52 49 48 47 44 43 41 36 31 23 20 20
149 147 142 128 117 120 120 123 119 96 71 79 104 126 130 17 100 350 293 213 214 133 101 88 122 133 132 131 127 133 151 171 162 156 156 149 142 140 133 124 110 95 73 57 77 93 57 14 28 63 9 333 20 29 28 35 61 85 94 98 94 90 85 79 75 68 63 61 59 60 60 60 58 55 52 50 47 43 41 40 35 28 20 14 12
154 151 153 147 126 123 123 126 124 114 102 86 106 173 125 312 294 345 358 119 75 85 76 350 156 141 129 134 135 141 160 175 170 160 156 151 138 133 142 126 100 97 98 75 76 89 64 25 7 24 15 4 27 46 41 45 75 93 95 94 88 85 79 71 66 59 53 51 50 49 52 54 53 51 49 49 47 42 37 33 28 20 14 8 5
159 155 161 156 142 135 135 150 150 135 140 141 183 233 64 323 25 36 334 249 101 83 48 346 60 120 129 142 138 139 153 162 158 149 148 152 144 132 123 110 102 117 125 100 78 80 76 49 14 9 7 10 22 58 66 52 75 89 85 81 77 72 66 58 49 43 37 34 33 32 32 35 38 37 36 39 41 38 30 22 17 14 9 4 1
160 160 160 154 154 150 144 158 155 131 134 168 190 209 179 24 48 46 321 284 109 89 60 32 44 79 131 167 141 128 139 150 146 143 150 156 138 124 127 120 113 127 124 111 108 116 111 94 64 32 17 21 16 23 40 25 30 43 39 48 59 52 44 38 29 25 23 20 18 16 14 13 14 13 12 15 20 22 19 11 6 4 2 358 356
163 166 158 156 164 155 140 145 145 144 163 181 175 225 160 90 49 35 355 355 75 92 80 68 60 51 57 61 95 115 124 135 135 119 142 139 117 108 140 133 123 119 118 123 130 127 122 110 103 80 51 50 29 16 15 1 355 349 339 353 19 26 20 16 13 12 12 11 8 6 5 1 357 354 350 350 354 357 358 357 354 354 353 352 350
167 168 156 160 164 155 150 147 151 161 166 155 152 215 192 90 51 23 31 21 23 80 102 99 86 75 82 78 56 59 28 80 116 359 20 103 116 130 149 126 124 133 145 148 137 125 130 124 113 85 67 77 70 38 16 1 348 330 316 321 342 356 358 357 357 358 358 358 359 356 356 355 351 348 342 337 337 338 340 342 343 344 346 346 345
169 166 154 160 161 161 165 157 156 159 152 158 173 166 141 51 51 32 35 40 21 23 71 98 95 76 67 69 71 67 31 24 99 113 62 11 43 134 136 134 139 146 158 151 129 124 137 132 124 94 78 82 80 70 1 5 348 319 315 320 328 330 335 341 339 342 342 342 346 345 346 347 345 344 342 338 334 330 331 333 335 338 340 341 342
172 171 162 165 169 168 173 171 163 158 159 172 169 119 101 47 48 40 28 43 38 21 23 35 68 76 41 35 62 71 60 57 57 41 124 98 356 123 131 141 132 115 139 141 125 128 114 106 122 105 102 94 70 58 8 15 349 316 309 310 320 321 324 332 332 333 332 331 333 333 335 336 337 338 336 336 334 331 328 327 330 333 336 338 338
171 175 175 175 176 174 176 178 170 162 169 170 161 150 145 151 76 64 45 43 46 43 34 21 38 72 49 24 34 49 59 90 114 8 4 96 141 146 132 124 94 69 84 98 106 125 121 121 153 137 140 115 64 36 12 10 342 331 303 298 313 315 316 324 325 327 326 325 325 325 326 325 327 329 329 330 331 331 329 327 329 330 333 335 335
173 177 180 180 181 186 183 180 179 172 175 163 157 170 179 178 161 90 67 53 47 46 50 38 29 38 53 33 15 48 44 16 65 53 14 15 15 20 51 133 126 107 30 34 45 106 120 133 150 137 114 68 69 12 345 332 327 332 302 302 312 308 309 316 318 323 324 324 324 323 323 322 320 321 322 324 326 327 328 329 330 330 331 333 333
179 180 183 184 184 196 194 178 176 176 180 185 176 180 185 180 164 132 103 72 61 44 28 41 17 334 337 179 267 74 69 6 41 58 20 14 16 11 345 336 90 132 120 100 285 304 35 53 59 68 38 30 29 330 317 316 321 312 290 300 310 306 306 310 313 322 325 325 324 321 321 321 318 315 315 320 322 322 324 327 329 329 330 331 332
182 181 183 185 182 193 200 180 176 184 182 189 197 197 185 169 161 169 148 117 74 53 8 350 1 326 312 266 319 54 81 334 49 97 72 43 349 334 7 342 350 87 91 73 287 296 16 44 28 45 30 0 342 326 323 321 320 303 279 295 308 303 302 310 317 325 329 329 326 321 321 321 318 311 311 317 319 319 318 319 321 322 324 325 328
185 184 185 185 183 188 193 184 182 189 177 174 194 212 205 170 166 204 198 162 230 318 310 312 326 310 318 336 335 342 341 322 351 271 178 112 268 308 24 329 306 11 40 359 303 290 320 350 296 292 29 323 310 314 319 318 317 303 289 307 311 296 293 311 318 324 330 331 328 325 323 323 320 311 308 313 316 317 315 313 313 314 316 318 321
186 186 185 183 186 186 188 186 182 185 182 182 195 201 216 216 190 213 226 198 240 277 283 291 287 274 306 327 315 322 331 315 304 303 319 358 329 0 25 320 296 296 100 3 295 299 309 304 302 148 145 316 314 310 303 300 309 305 297 308 311 295 293 308 311 317 327 328 328 328 326 324 321 312 308 311 313 316 315 312 311 309 310 312 314
183 183 181 181 183 180 183 187 182 183 186 190 202 203 211 224 224 230 234 217 223 261 282 288 287 280 285 302 304 311 314 305 306 315 339 352 0 20 32 346 315 305 293 273 280 292 278 274 278 180 274 305 303 308 300 283 292 302 298 306 308 300 300 302 302 313 323 325 326 329 329 326 323 316 310 309 311 315 317 316 313 310 309 309 311
177 181 180 182 183 180 184 187 185 188 190 195 203 204 208 218 224 234 241 233 225 249 273 279 281 279 270 270 291 296 301 315 314 312 340 351 347 359 356 334 337 321 312 303 284 278 270 276 250 209 284 309 284 297 303 283 283 297 301 306 305 302 302 299 304 313 316 318 324 330 332 329 324 320 314 310 310 312 315 317 315 312 310 308 309
182 181 182 185 187 187 190 188 187 193 194 197 204 204 208 219 222 227 237 240 233 243 261 270 273 276 275 264 264 278 284 289 283 281 305 323 307 308 304 312 344 315 307 314 309 298 289 296 285 221 265 320 289 291 299 290 290 297 298 302 302 300 298 300 307 309 306 308 318 327 333 333 328 323 320 315 312 312 313 315 316 314 311 309 308
186 181 179 184 188 190 193 192 190 196 199 198 203 206 209 220 222 224 232 238 241 245 255 266 267 269 276 279 280 280 279 274 271 271 270 270 277 281 280 286 289 287 301 308 299 303 300 300 300 283 291 308 300 299 303 303 302 300 301 302 299 298 297 302 309 305 297 301 311 323 332 334 331 328 325 321 318 316 314 315 316 315 312 310 309
185 183 182 185 189 192 195 199 197 196 201 201 202 204 211 221 225 226 226 225 236 247 250 256 259 261 264 271 279 283 287 289 285 281 278 269 272 279 278 279 276 276 290 291 283 299 303 299 302 302 302 306 307 305 307 306 303 305 309 304 298 300 300 305 312 311 303 299 302 318 331 334 332 330 328 326 322 319 316 314 313 311 309 307 307
187 190 196 196 194 196 199 203 203 200 201 204 204 205 212 222 227 234 227 215 226 244 250 255 257 256 256 260 265 268 275 281 278 276 275 265 260 266 271 272 270 264 265 271 278 289 296 298 300 300 300 304 306 303 302 301 299 304 308 303 302 303 301 307 316 317 310 298 294 317 330 330 330 330 329 327 325 322 319 316 312 309 307 306 305
194 193 200 202 198 201 204 205 207 205 202 205 208 207 212 220 226 235 232 219 230 241 246 253 258 257 253 253 257 259 260 263 268 270 271 265 257 253 254 256 258 259 259 268 281 287 291 293 294 297 300 302 300 298 298 298 299 303 305 305 306 305 306 312 318 316 307 292 294 321 326 326 327 328 328 327 326 324 321 320 317 313 310 308 308
198 196 197 200 199 201 204 206 209 207 201 205 214 214 215 220 224 229 229 227 236 244 246 248 251 252 252 250 253 254 252 252 255 261 265 268 269 266 263 264 265 266 266 268 274 281 287 290 291 295 298 298 297 298 299 298 300 303 305 307 309 310 313 317 319 312 298 290 314 321 318 320 326 325 322 323 324 322 321 321 318 315 313 310 310
195 198 199 197 195 198 203 202 203 206 203 208 219 221 219 223 227 231 232 229 231 238 243 245 246 249 249 250 253 252 251 249 249 257 264 267 274 278 277 279 280 278 273 271 271 273 281 287 290 293 297 300 299 298 297 296 299 302 305 308 310 313 315 316 318 312 300 308 321 313 306 316 326 322 318 319 321 320 319 319 315 310 308 308 308
191 193 201 198 190 195 203 200 198 207 210 213 222 223 222 224 229 234 236 233 234 237 242 243 243 245 247 249 254 257 258 255 252 257 264 266 269 271 271 269 268 269 267 266 265 267 275 282 285 289 294 297 294 294 297 298 301 305 307 309 311 314 315 315 315 314 312 314 313 305 303 316 319 315 312 315 316 315 315 317 314 308 303 302 304
195 188 196 201 193 194 205 206 203 207 211 215 221 223 225 225 225 230 231 230 232 235 239 241 239 241 244 246 247 250 254 253 253 256 261 266 266 265 268 267 263 267 270 269 270 270 274 279 284 287 288 289 290 293 297 300 304 306 306 308 310 311 313 312 310 311 312 311 311 313 314 314 312 309 310 313 311 308 310 312 312 310 304 298 298
204 193 194 200 201 201 208 211 206 206 210 214 216 222 230 229 225 229 229 227 229 232 235 237 237 238 240 242 242 241 245 247 250 257 260 262 265 266 270 270 269 271 271 271 273 272 272 276 282 286 287 289 294 297 299 304 306 306 305 307 308 306 308 308 306 307 309 308 311 314 311 308 310 312 311 311 308 304 305 307 306 307 304 294 292
212 206 200 197 202 207 211 214 213 208 209 213 215 220 230 235 235 237 238 237 234 232 237 239 238 240 240 239 239 236 238 241 243 248 252 254 258 263 264 264 266 270 273 276 277 275 278 281 284 287 291 297 300 299 301 302 300 300 303 303 303 304 305 304 303 305 308 309 308 307 308 311 314 314 311 309 308 305 304 303 299 298 296 288 286
211 213 211 204 203 208 210 214 219 213 210 216 220 222 226 232 238 239 244 252 248 239 241 243 242 246 245 241 241 238 236 238 240 240 241 247 254 259 263 267 271 275 277 282 284 284 285 286 288 293 297 298 297 295 297 297 295 298 300 301 303 308 308 305 304 305 306 306 306 307 312 315 312 311 311 310 308 305 301 299 297 292 287 280 278
213 214 215 214 213 212 207 208 219 222 219 218 221 225 226 225 231 237 242 259 263 252 245 246 248 250 250 249 250 246 237 231 232 235 240 250 257 259 267 272 275 278 279 280 281 282 284 286 289 293 293 291 292 293 296 299 297 295 297 303 309 311 310 308 305 305 304 303 306 309 310 312 310 310 310 309 306 303 301 302 302 295 284 271 269
219 217 216 218 220 221 212 207 216 224 225 222 218 223 230 227 226 237 241 251 261 258 249 249 252 254 255 256 254 250 244 236 236 244 254 260 258 257 260 264 267 271 275 279 280 281 283 285 287 290 291 292 297 301 302 302 300 301 307 315 315 311 312 310 306 305 306 305 308 308 306 306 306 306 306 306 305 306 306 307 307 302 293 281 277
215 217 218 218 220 224 220 215 220 222 220 224 216 214 223 227 224 235 246 247 254 260 258 254 254 257 259 259 256 252 247 245 251 258 259 256 255 256 258 259 261 263 266 271 276 281 284 285 287 290 292 295 300 303 302 303 306 312 318 318 312 308 308 306 303 303 305 306 307 305 302 303 303 301 301 303 304 305 305 306 307 306 302 294 287
207 210 214 216 217 223 224 225 229 219 206 215 216 210 215 221 222 233 249 253 253 256 257 256 258 262 262 263 266 262 246 241 250 254 251 251 258 263 261 257 256 256 257 259 262 266 272 276 282 285 287 293 299 300 300 306 312 313 310 305 301 300 299 297 296 297 301 306 307 301 299 301 303 301 300 301 303 304 305 306 307 307 305 298 291
205 209 212 214 216 220 225 229 227 195 187 203 211 210 213 220 230 240 249 256 259 259 258 259 259 260 262 264 269 269 261 250 243 240 244 253 260 264 267 267 264 260 258 259 260 263 266 268 274 279 283 288 292 293 297 303 305 302 299 298 298 299 299 298 297 297 300 304 303 298 296 299 303 302 301 302 305 306 306 307 309 310 308 304 300
205 209 210 212 214 214 220 222 201 165 189 201 206 217 225 234 243 248 250 254 259 261 263 265 263 261 264 265 264 269 274 272 254 238 241 251 258 264 270 273 271 270 269 267 266 267 267 266 267 271 279 286 288 292 297 299 300 300 302 304 306 306 302 300 300 299 299 299 299 295 292 296 303 304 302 305 310 309 308 310 311 309 305 301 298
211 212 213 214 210 207 212 207 170 150 207 213 215 229 237 242 244 246 249 253 259 261 262 266 267 269 274 273 274 285 294 287 268 248 240 248 267 283 285 278 275 276 276 274 273 272 268 265 266 271 278 284 287 293 301 304 305 308 310 310 308 305 301 300 301 300 298 299 300 296 292 298 305 305 303 308 312 312 312 314 313 309 305 300 297
213 213 216 215 205 202 205 185 150 123 192 210 218 230 233 241 243 245 251 257 262 263 265 276 296 318 325 312 313 334 331 303 283 270 262 268 282 296 296 291 289 287 287 288 290 287 280 274 274 279 284 288 292 296 302 307 312 315 314 310 306 303 301 300 300 298 298 302 306 304 300 301 304 305 305 309 313 313 313 314 313 312 314 312 308
214 218 229 223 188 179 143 136 135 120 122 186 221 239 244 248 249 255 265 268 268 270 277 288 304 331 340 325 340 356 331 309 299 291 288 291 300 306 301 300 301 299 300 303 300 298 297 290 285 287 294 302 306 305 307 311 316 317 307 295 292 302 307 305 301 300 301 304 307 307 302 298 302 309 311 313 316 314 312 313 315 317 318 318 316
208 219 222 170 134 123 94 89 97 91 84 96 212 254 265 264 255 257 272 277 277 287 300 294 296 331 337 295 305 321 313 312 311 306 306 307 310 312 307 303 302 301 309 318 315 313 311 305 301 301 304 309 312 312 314 316 316 313 303 293 293 301 306 307 309 311 310 307 307 313 312 306 309 318 321 320 319 316 313 316 319 320 319 318 317
145 133 147 136 122 112 100 92 89 86 83 76 68 58 330 276 250 253 285 283 273 288 335 325 311 329 336 335 344 342 326 317 310 306 307 305 303 308 309 305 302 305 316 323 324 322 316 309 308 308 308 310 310 311 315 314 312 315 317 315 312 305 298 301 308 310 307 305 311 320 321 315 314 321 328 326 319 313 315 317 318 318 319 319 316